Location: Strawberry
(45.6646°N, 111.9596°W)
Time: 22:01:07
(UTC+00:00)

Courier 1B Rocket - Pass Details

Date: 11 October 2022
Orbit: 920 x 1202 km, 28.3° (Epoch: 03 December)

Event Time Altitude Azimuth Distance (km) Brightness Sun altitude
Rises 02:49:23 0° 248° (WSW) 3,871 9.0 -21.4°
Reaches altitude 10° 02:53:50 10° 223° (SW) 2,845 7.8 -22.2°
Maximum altitude 02:56:55 13° 196° (SSW) 2,550 7.2 -22.7°
Enters shadow 02:59:44 10° 171° (S) 2,722 7.1 -23.2°
Drops below altitude 10° 02:59:56 10° 169° (S) 2,750 - -23.2°
Sets 03:04:06 0° 144° (SE) 3,640 - -23.9°
